sat.trackr.live / text

‹ back to catalog

STARLINK-11372 [DTC]

NORAD 61576 · 2024-187C

PAYLOAD ACTIVE UNKNOWN

§ Identity

Operator
Country
US
Launch date
2024-10-18
Launch site
AFETR
Launch vehicle
Mass (kg)
RCS (m²)

Purposes: comms

External: N2YO · Heavens-Above · Gunter

§ Orbital elements

Epoch: 2026-09-21T16:15:18.350208Z

Period
91.74 min
Inclination
53.1589°
Eccentricity
0.0000795
Mean motion
15.69707062 rev/d
Perigee alt
359.2 km
Apogee alt
360.3 km
Semi-major
6,737.9 km
B*
1.7127e-6
RAAN
50.0145°
Arg perigee
87.5826°
Mean anomaly
272.5283°
Rev number
11,153

§ Raw data

STARLINK-11372 [DTC]1 61576U 24187C   26264.67729572 -.00000381  00000+0  17127-5 0  99972 61576  53.1589  50.0145 0000795  87.5826 272.5283 15.69707062111533

JSON: /api/v1/satellites/61576 · /tle

For live sub-satellite position, see the globe view (requires WebGL).

§ Visibility from observer

Set your observer location to see the next 7 days of passes ≥ 10°. The values pass through the URL so the page stays shareable.

No JS? Fill the form by hand. The geolocation button needs JavaScript.